Baton Rouge, LA

8:14 PM CST on December 15, 2019 (GMT -0600)
Baton Rouge Metro-Ryan

Weather History for KBTR - November, 2019

Change the Weather History Date:

Monday, November 11, 2019

  Actual Average Record
Temperature  
Mean Temperature 64 °F 62 °F  
Max Temperature 80 °F 73 °F 86 °F (1935)
Min Temperature 48 °F 50 °F 32 °F (1943)
Degree Days  
Heating Degree Days 1 5  
Month to date heating degree days 85 47  
Since 1 July heating degree days 114 93  
Cooling Degree Days 0 2  
Month to date cooling degree days 9 26  
Year to date cooling degree days 3123 2776  
Growing Degree Days 13 (Base 50)    
Moisture  
Dew Point 58 °F    
Average Humidity 76    
Maximum Humidity 93    
Minimum Humidity 58    
Precipitation  
Precipitation 0.09 in 0.13 in 3.70 in (1940)
Month to date precipitation 0.09 1.55  
Year to date precipitation 59.65 52.50  
Snow  
Snow 0.00 in - - ()
Month to date snowfall 0.0  
Since 1 July snowfall 0.0  
Since 1 September snowfall 0.0  
Snow Depth 0.00 in    
Sea Level Pressure  
Sea Level Pressure 30.03 in    
Wind  
Wind Speed 5 mph (NNW)    
Max Wind Speed 24 mph    
Max Gust Speed 33 mph    
Visibility 9 miles    
Events Rain    
T = Trace of Precipitation, MM = Missing Value Source: NWS Daily Summary

Daily Weather History Graph

Daily Weather History Graph

Search for Another Location

Airport or City:

Astronomy

Nov. 11, 2019 Rise Set
Actual Time 6:27 AM CST 5:09 PM CST
Civil Twilight 6:01 AM CST 5:35 PM CST
Nautical Twilight 5:32 AM CST 6:03 PM CST
Astronomical Twilight 5:04 AM CST 6:32 PM CST
Moon 4:59 PM CST (11/11) 5:26 AM CST (11/11)
Length of Visible Light 11h 33m
Length of Day
10h 42m
Waxing Gibbous, 99% of the Moon is Illuminated
Nov 11
Waxing Gibbous
Nov 12
Full
Nov 19
Last Quarter
Nov 26
New
Dec 4
First Quarter

Hourly Weather History & Observations

Time (CST) Temp. Dew Point Humidity Pressure Visibility Wind Dir Wind Speed Gust Speed Precip Events Conditions
12:53 AM 51.1 °F 48.9 °F 92% 30.07 in 7.0 mi NE 3.5 mph - N/A   Clear
1:53 AM 50.0 °F 48.0 °F 93% 30.06 in 7.0 mi Calm Calm - N/A   Partly Cloudy
2:53 AM 48.9 °F 46.9 °F 93% 30.05 in 8.0 mi Calm Calm - N/A   Mostly Cloudy
3:53 AM 48.9 °F 46.0 °F 90% 30.04 in 10.0 mi East 3.5 mph - N/A   Clear
4:53 AM 50.0 °F 48.0 °F 93% 30.04 in 8.0 mi Calm Calm - N/A   Clear
5:53 AM 50.0 °F 48.0 °F 93% 30.06 in 6.0 mi NNE 4.6 mph - N/A   Clear
6:53 AM 53.1 °F 51.1 °F 93% 30.06 in 9.0 mi ENE 4.6 mph - N/A   Clear
7:53 AM 57.9 °F 54.0 °F 87% 30.08 in 10.0 mi ENE 3.5 mph - N/A   Clear
8:53 AM 63.0 °F 57.0 °F 81% 30.08 in 10.0 mi Variable 5.8 mph - N/A   Clear
9:53 AM 71.1 °F 61.0 °F 70% 30.08 in 10.0 mi SE 5.8 mph - N/A   Clear
10:53 AM 75.9 °F 63.0 °F 64% 30.06 in 10.0 mi South 6.9 mph - N/A   Clear
11:53 AM 75.9 °F 62.1 °F 62% 30.02 in 10.0 mi SE 9.2 mph - N/A   Mostly Cloudy
12:53 PM 78.1 °F 62.1 °F 58% 30.00 in 10.0 mi SW 4.6 mph - N/A   Mostly Cloudy
1:53 PM 78.1 °F 63.0 °F 60% 29.98 in 10.0 mi South 5.8 mph - N/A   Mostly Cloudy
2:53 PM 78.1 °F 62.1 °F 58% 29.98 in 10.0 mi South 5.8 mph - N/A   Scattered Clouds
3:53 PM 75.9 °F 62.1 °F 62% 29.98 in 10.0 mi SSW 3.5 mph - N/A   Mostly Cloudy
4:38 PM 72.0 °F 64.9 °F 78% 29.98 in 1.8 mi WNW 13.8 mph 28.8 mph 0.00 in Rain Heavy Rain
4:47 PM 73.4 °F 64.4 °F 73% 29.98 in 10.0 mi WNW 6.9 mph - 0.09 in Rain Light Rain
4:53 PM 70.0 °F 66.0 °F 87% 29.98 in 10.0 mi NW 3.5 mph - 0.09 in   Overcast
5:53 PM 69.1 °F 66.9 °F 93% 29.99 in 7.0 mi Calm Calm - 0.00 in   Scattered Clouds
6:53 PM 68.0 °F 66.0 °F 93% 30.00 in 4.0 mi Calm Calm - N/A   Mostly Cloudy
6:56 PM 68.0 °F 66.0 °F 93% 30.00 in 1.5 mi Calm Calm - N/A   Mostly Cloudy
7:03 PM 66.9 °F 66.0 °F 97% 30.00 in 7.0 mi Calm Calm - N/A   Mostly Cloudy
7:43 PM 69.1 °F 66.0 °F 90% 30.01 in 7.0 mi NW 4.6 mph - N/A   Overcast
7:53 PM 69.1 °F 66.0 °F 90% 30.01 in 10.0 mi NW 5.8 mph - N/A   Mostly Cloudy
8:29 PM 68.0 °F 64.9 °F 90% 30.01 in 10.0 mi Calm Calm - N/A   Mostly Cloudy
8:53 PM 66.9 °F 64.9 °F 93% 30.01 in 10.0 mi Calm Calm - N/A   Overcast
9:53 PM 66.9 °F 64.9 °F 93% 30.02 in 9.0 mi NW 3.5 mph - N/A   Overcast
10:46 PM 64.9 °F 61.0 °F 87% 30.04 in 10.0 mi NNW 19.6 mph 33.4 mph N/A   Overcast
10:53 PM 60.1 °F 55.9 °F 86% 30.05 in 10.0 mi NNW 16.1 mph 33.4 mph N/A   Overcast
11:34 PM 52.0 °F 48.0 °F 86% 30.10 in 10.0 mi NNW 11.5 mph 26.5 mph 0.00 in   Overcast
11:51 PM 50.0 °F 46.4 °F 87% 30.11 in 10.0 mi NNW 11.5 mph 24.2 mph 0.00 in   Overcast
11:53 PM 50.0 °F 46.9 °F 89% 30.11 in 10.0 mi North 11.5 mph 24.2 mph 0.00 in   Overcast